Waarnemingen

Advertentie
Mijn weer
Chievres, België (6432): temperatuur & dauwpunt: 01.07.2020 17:00:00 - 07.07.2020 17:00:00 (CEST)Chievres, België (6432): windsnelheid & windstoten: 01.07.2020 17:00:00 - 07.07.2020 17:00:00 (CEST)Chievres, België (6432): windrichting: 01.07.2020 17:00:00 - 07.07.2020 17:00:00 (CEST)Chievres, België (6432): luchtdruk: 01.07.2020 17:00:00 - 07.07.2020 17:00:00 (CEST)Chievres, België (6432): zicht: 01.07.2020 17:00:00 - 07.07.2020 17:00:00 (CEST)
Datum & Tijd tt [°C] td [°C] ff [km/u] ff [kn] fx [km/u] fx [kn] dd ppp [hPa] vv [km]
07.07.2020 17:00:00 20,9 8,5 14 8 - - WZW 1019,2 19
07.07.2020 16:00:00 20,6 8,0 14 8 25 14 W 1019,7 20
07.07.2020 15:00:00 19,8 8,3 14 8 32 18 W 1020,2 20
07.07.2020 14:00:00 19,4 8,3 18 10 - - W 1020,7 20
07.07.2020 13:00:00 19,5 7,9 14 8 25 14 WZW 1021,1 20
07.07.2020 12:00:00 19,2 9,6 11 6 25 14 W 1021,5 19
07.07.2020 11:00:00 17,9 9,7 7 4 - - WZW 1021,6 20
07.07.2020 10:00:00 16,1 11,5 7 4 14 8 WZW 1021,8 18
07.07.2020 09:00:00 14,5 11,7 7 4 14 8 ZW 1021,7 16
07.07.2020 08:00:00 12,6 11,7 7 4 - - ZW 1021,7 11
07.07.2020 07:00:00 10,7 10,3 7 4 14 8 ZZW 1022,0 10
07.07.2020 06:00:00 8,8 8,5 7 4 11 6 ZZW 1021,8 9
07.07.2020 05:00:00 8,8 8,4 4 2 - - N 1022,2 15
07.07.2020 04:00:00 9,3 8,5 7 4 11 6 ZZW 1022,3 17
07.07.2020 03:00:00 9,8 8,5 7 4 11 6 N 1022,7 20
07.07.2020 02:00:00 9,8 8,2 7 4 - - ZW 1023,0 20
07.07.2020 01:00:00 10,2 8,6 4 2 7 4 N 1023,1 20
07.07.2020 00:00:00 11,6 9,2 7 4 7 4 ZZW 1023,1 20
06.07.2020 23:00:00 12,3 9,3 4 2 - - N 1023,0 20
06.07.2020 22:00:00 15,1 8,5 4 2 11 6 N 1022,2 20
06.07.2020 21:00:00 16,7 8,8 11 6 25 14 W 1022,0 20
06.07.2020 20:00:00 17,6 7,7 18 10 - - WNW 1021,6 20
06.07.2020 19:00:00 18,1 7,3 22 12 29 16 WNW 1021,2 20
06.07.2020 18:00:00 18,2 7,4 14 8 40 21 WNW 1020,8 20
06.07.2020 17:00:00 20,1 6,8 22 12 - - W 1020,5 20
06.07.2020 16:00:00 18,9 7,1 22 12 32 18 W 1020,1 20
06.07.2020 15:00:00 18,1 7,5 22 12 43 23 W 1019,7 20
06.07.2020 14:00:00 18,1 7,5 22 12 - - W 1019,2 18
06.07.2020 13:00:00 18,2 7,4 25 14 40 21 WNW 1018,7 19
06.07.2020 12:00:00 17,5 8,1 22 12 40 21 W 1018,2 20
06.07.2020 11:00:00 16,6 8,9 22 12 - - WNW 1017,7 16
06.07.2020 10:00:00 15,6 8,7 22 12 32 18 WNW 1017,6 20
06.07.2020 09:00:00 14,9 9,4 22 12 32 18 W 1017,1 18
06.07.2020 08:00:00 13,4 9,8 18 10 - - WZW 1016,5 15
06.07.2020 07:00:00 12,1 10,0 14 8 22 12 WZW 1016,1 11
06.07.2020 06:00:00 11,6 9,7 11 6 22 12 WZW 1015,7 12
06.07.2020 05:00:00 11,6 9,8 11 6 - - WZW 1015,3 12
06.07.2020 04:00:00 12,1 9,9 14 8 25 14 WZW 1015,2 14
06.07.2020 03:00:00 12,3 9,8 14 8 29 16 WZW 1015,3 15
06.07.2020 02:00:00 12,8 9,8 18 10 - - WZW 1015,2 16
06.07.2020 01:00:00 13,1 9,8 18 10 32 18 WZW 1015,0 15
06.07.2020 00:00:00 13,7 9,0 18 10 40 21 WZW 1014,8 18
05.07.2020 23:00:00 14,7 8,6 22 12 - - WZW 1014,6 20
05.07.2020 22:00:00 15,8 8,9 29 16 50 27 WZW 1014,2 20
05.07.2020 21:00:00 16,8 10,0 25 14 54 29 WZW 1014,0 20
05.07.2020 20:00:00 18,5 11,0 32 18 - - WZW 1013,7 20
05.07.2020 19:00:00 19,8 12,5 40 21 61 33 WZW 1013,7 20
05.07.2020 18:00:00 20,8 14,3 40 21 54 29 WZW 1013,6 19
05.07.2020 17:00:00 20,6 15,2 32 18 - - W 1013,7 20
05.07.2020 16:00:00 21,7 16,8 25 14 43 23 WZW 1013,6 20
05.07.2020 15:00:00 19,8 16,8 32 18 47 25 ZW 1013,6 20
05.07.2020 14:00:00 19,1 17,4 26 14 - - WZW 1013,7 10
05.07.2020 13:00:00 18,3 17,0 25 14 40 21 WZW 1014,0 4,5
05.07.2020 12:00:00 18,2 17,2 26 14 50 27 WZW 1013,7 3,6
05.07.2020 11:00:00 18,3 17,1 26 14 - - ZW 1013,7 3,6
05.07.2020 10:00:00 19,2 16,4 28 15 47 25 ZW 1013,3 10
05.07.2020 09:00:00 18,7 16,5 25 14 40 21 ZW 1013,3 20
05.07.2020 08:00:00 18,1 16,3 29 16 - - ZW 1013,2 7
05.07.2020 07:00:00 17,7 16,2 25 14 47 25 ZW 1013,2 20
05.07.2020 06:00:00 18,0 15,6 29 16 47 25 ZW 1013,2 20
05.07.2020 05:00:00 17,6 15,8 25 14 - - ZW 1013,2 20
05.07.2020 04:00:00 17,2 16,0 25 14 40 21 ZW 1013,7 20
05.07.2020 03:00:00 17,7 16,1 22 12 36 19 WZW 1013,8 20
05.07.2020 02:00:00 18,0 16,6 22 12 - - WZW 1014,2 20
05.07.2020 01:00:00 18,1 17,4 24 13 40 21 ZW 1014,3 10
05.07.2020 00:00:00 19,6 16,3 25 14 40 21 ZW 1013,8 20
04.07.2020 23:00:00 19,3 16,5 22 12 - - ZW 1014,0 20
04.07.2020 22:00:00 18,8 16,9 18 10 36 19 ZZW 1014,1 20
04.07.2020 21:00:00 18,8 16,9 18 10 40 21 ZW 1014,3 17
04.07.2020 20:00:00 19,7 16,5 25 14 - - ZW 1014,5 20
04.07.2020 19:00:00 20,5 16,1 25 14 43 23 ZW 1014,6 20
04.07.2020 18:00:00 20,2 15,9 25 14 40 21 ZZW 1014,8 20
04.07.2020 17:00:00 19,9 15,3 25 14 - - ZW 1015,5 20
04.07.2020 16:00:00 20,2 14,8 29 16 47 25 ZW 1015,2 20
04.07.2020 15:00:00 19,6 14,8 22 12 47 25 ZZW 1015,5 20
04.07.2020 14:00:00 19,0 15,0 25 14 - - ZZW 1015,7 20
04.07.2020 13:00:00 17,5 15,4 18 10 36 19 ZW 1016,2 18
04.07.2020 12:00:00 16,3 13,9 24 13 43 23 ZW 1016,1 3,8
04.07.2020 11:00:00 17,0 12,9 29 16 - - ZW 1016,0 18
04.07.2020 10:00:00 15,7 12,8 18 10 36 19 ZW 1016,2 20
04.07.2020 09:00:00 16,3 11,7 25 14 36 19 ZW 1016,3 20
04.07.2020 08:00:00 15,5 11,8 18 10 - - ZZW 1016,5 20
04.07.2020 07:00:00 15,1 11,4 14 8 25 14 ZZW 1016,3 20
04.07.2020 06:00:00 14,7 11,3 14 8 25 14 ZZW 1016,7 20
04.07.2020 05:00:00 14,4 11,6 11 6 - - ZZW 1016,7 20
04.07.2020 04:00:00 14,0 11,6 7 4 14 8 ZZW 1017,5 20
04.07.2020 03:00:00 14,3 11,5 11 6 18 10 ZZW 1017,7 20
04.07.2020 02:00:00 14,3 11,3 11 6 - - ZZW 1018,1 20
04.07.2020 01:00:00 14,1 11,2 7 4 14 8 ZZW 1018,6 20
04.07.2020 00:00:00 13,6 10,9 7 4 14 8 ZZW 1018,5 20
03.07.2020 23:00:00 14,1 11,2 7 4 - - ZZW 1018,6 20
03.07.2020 22:00:00 16,0 10,5 7 4 25 14 WZW 1018,3 20
03.07.2020 21:00:00 18,2 10,7 18 10 29 16 W 1018,5 20
03.07.2020 20:00:00 19,8 9,4 22 12 - - W 1018,0 20
03.07.2020 19:00:00 20,6 9,5 25 14 36 19 W 1017,8 20
03.07.2020 18:00:00 21,0 10,4 22 12 36 19 WZW 1018,2 20
03.07.2020 17:00:00 20,6 9,9 22 12 - - WZW 1018,2 20
03.07.2020 16:00:00 21,3 11,3 22 12 36 19 WZW 1018,3 20
03.07.2020 15:00:00 19,6 11,3 22 12 36 19 ZW 1018,6 20
03.07.2020 14:00:00 19,6 12,9 18 10 - - ZW 1018,8 20
03.07.2020 13:00:00 18,9 12,7 16 9 29 16 ZW 1018,7 10
03.07.2020 12:00:00 18,5 12,6 22 12 29 16 WZW 1018,7 20
03.07.2020 11:00:00 18,1 13,6 18 10 - - ZW 1018,6 20
03.07.2020 10:00:00 15,7 13,1 18 10 25 14 ZW 1018,5 18
03.07.2020 09:00:00 15,9 13,2 14 8 22 12 ZW 1018,2 18
03.07.2020 08:00:00 14,0 12,3 11 6 - - ZW 1018,1 19
03.07.2020 07:00:00 12,9 11,9 11 6 14 8 ZZW 1017,8 19
03.07.2020 06:00:00 12,3 11,5 7 4 14 8 ZZW 1017,6 17
03.07.2020 05:00:00 11,6 10,9 11 6 - - ZW 1017,2 16
03.07.2020 04:00:00 12,0 11,0 11 6 22 12 ZW 1017,1 18
03.07.2020 03:00:00 12,3 11,1 11 6 22 12 ZW 1017,1 17
03.07.2020 02:00:00 12,6 10,9 14 8 - - ZW 1016,7 19
03.07.2020 01:00:00 12,8 10,5 14 8 22 12 ZW 1016,6 20
03.07.2020 00:00:00 13,0 10,3 11 6 14 8 ZW 1016,2 20
02.07.2020 23:00:00 13,4 9,9 7 4 - - ZW 1016,1 20
02.07.2020 22:00:00 15,9 9,4 14 8 32 18 W 1015,2 20
02.07.2020 21:00:00 17,5 9,7 18 10 36 19 W 1014,8 20
02.07.2020 20:00:00 19,1 9,7 22 12 - - W 1014,2 20
02.07.2020 19:00:00 19,5 9,5 22 12 43 23 W 1013,6 20
02.07.2020 18:00:00 20,4 9,6 25 14 40 21 W 1013,2 20
02.07.2020 17:00:00 19,4 9,6 22 12 - - W 1013,2 20
02.07.2020 16:00:00 19,4 11,3 18 10 36 19 WZW 1013,0 20
02.07.2020 15:00:00 19,3 10,8 25 14 32 18 W 1012,7 20
02.07.2020 14:00:00 18,7 11,4 18 10 - - W 1012,5 20
02.07.2020 13:00:00 19,1 12,0 22 12 40 21 WZW 1012,1 18
02.07.2020 12:00:00 18,9 11,9 18 10 36 19 WZW 1011,7 20
02.07.2020 11:00:00 17,5 11,3 22 12 - - ZW 1011,7 10
02.07.2020 10:00:00 17,3 13,5 18 10 25 14 WZW 1011,2 20
02.07.2020 09:00:00 16,0 14,0 14 8 22 12 WZW 1011,0 20
02.07.2020 08:00:00 15,2 14,0 11 6 - - ZW 1010,7 20
02.07.2020 07:00:00 14,3 13,6 7 4 14 8 ZZW 1010,7 20
02.07.2020 06:00:00 14,6 13,0 11 6 14 8 ZZW 1010,6 10
02.07.2020 05:00:00 14,5 12,6 7 4 - - ZW 1010,5 20
02.07.2020 04:00:00 14,1 12,6 7 4 14 8 Z 1010,2 20
02.07.2020 03:00:00 14,5 12,7 7 4 14 8 ZZW 1010,5 20
02.07.2020 02:00:00 13,7 12,3 7 4 - - ZW 1010,2 20
02.07.2020 01:00:00 13,8 12,3 11 6 14 8 ZZW 1010,2 20
02.07.2020 00:00:00 14,9 11,8 11 6 14 8 WZW 1010,1 20
01.07.2020 23:00:00 14,5 11,9 11 6 - - ZW 1010,1 20
01.07.2020 22:00:00 16,8 11,9 11 6 29 16 WZW 1009,1 20
01.07.2020 21:00:00 18,8 11,6 14 8 29 16 WZW 1008,6 20
01.07.2020 20:00:00 19,1 13,0 18 10 - - WZW 1008,6 20
01.07.2020 19:00:00 19,5 14,1 22 12 32 18 W 1008,6 20
01.07.2020 18:00:00 19,8 16,1 18 10 29 16 ZZW 1008,2 20
01.07.2020 17:00:00 19,1 16,5 18 10 - - ZZW 1008,6 20

tt = temperatuur
td = dauwpunt
ff = windsnelheid
fx = windstoten
dd = windrichting
ppp = luchtdruk
vv = zicht

Weerstations in de omgeving